"Pseudo-MPEC" for P22oLCM

Created 2026 Aug 11 13:35:14 UT using Find_Orb

Click here for an explanation of pseudo-MPECs

 
 Astrometry: 
     P22oLCM 0C2026 06 23.53197121 17 13.399-13 53 51.81   ~84DZ 22.51GVNEOCPF52
     P22oLCM 0C2026 06 23.54418421 17 13.348-13 53 51.42   ~84DZ 22.60GVNEOCPF52
     P22oLCM 0C2026 06 23.55642821 17 13.298-13 53 51.17   ~84DZ 22.21GVNEOCPF52
     P22oLCM 0C2026 06 23.56864221 17 13.233-13 53 50.43   ~84DZ 22.39GVNEOCPF52
     P22oLCM 0C2026 07 20.45418521 10 50.518-13 59 39.61   ~84EZ 21.36wXNEOCPF51
     P22oLCM 0C2026 07 20.46683221 10 50.210-13 59 40.24   ~84EZ 21.44wXNEOCPF51
     P22oLCM 0C2026 07 20.47929221 10 49.900-13 59 40.96   ~84EZ 21.36wXNEOCPF51
     P22oLCM 0C2026 07 20.49178421 10 49.590-13 59 41.83   ~84EZ 21.48wXNEOCPF51
     P22oLCM*0C2026 08 03.43935621 04 38.622-14 16 55.91   ~83CZ 21.98wXNEOCPF52
     P22oLCM 0C2026 08 03.45277521 04 38.231-14 16 57.19   ~83CZ 21.27wXNEOCPF52
     P22oLCM 0C2026 08 03.46618921 04 37.810-14 16 58.40   ~83CZ 21.78wXNEOCPF52
     P22oLCM 0C2026 08 03.47963121 04 37.417-14 16 59.59   ~83CZ 21.13wXNEOCPF52
     P22oLCM 0C2026 08 03.52866221 04 35.951-14 17 03.51   ~840K 21.13GVNEOCPF51
     P22oLCM 0C2026 08 03.52930821 04 35.922-14 17 03.74   ~840K 21.32GVNEOCPF51
     P22oLCM KC2026 08 04.22993721 04 15.87 -14 18 04.1    ~846Z 21.2 GVNEOCPH21
     P22oLCM KC2026 08 04.24541221 04 15.40 -14 18 05.3    ~846Z 21.3 GVNEOCPH21
     P22oLCM 0C2026 08 04.42565421 04 10.234-14 18 22.10   ~87L5 21.39wXNEOCPF51
     P22oLCM 0C2026 08 04.43780821 04 09.863-14 18 22.95   ~87L5 21.43wXNEOCPF51
     P22oLCM 0C2026 08 04.44997121 04 09.498-14 18 24.16   ~87L5 21.51wXNEOCPF51
     P22oLCM 0C2026 08 04.46213521 04 09.130-14 18 25.01   ~87L5 21.09wXNEOCPF51
     P22oLCM 3C2026 08 06.48085421 03 10.535-14 21 24.56   ~86E5 20.86GVNEOCPT14
     P22oLCM 3C2026 08 06.48206121 03 10.499-14 21 24.69   ~86E5 20.84GVNEOCPT14
     P22oLCM 3C2026 08 06.48326321 03 10.462-14 21 24.78   ~86E5 20.90GVNEOCPT14
     P22oLCM 0C2026 08 08.44909321 02 13.131-14 24 23.32   ~88D5 21.52wXNEOCPF51
     P22oLCM 0C2026 08 08.46063921 02 12.786-14 24 24.22   ~88D5 21.35wXNEOCPF51
     P22oLCM 0C2026 08 08.47177721 02 12.449-14 24 25.33   ~88D5 21.84wXNEOCPF51
     P22oLCM 0C2026 08 08.48288221 02 12.112-14 24 26.43   ~88D5 21.49wXNEOCPF51
     P22oLCM 0C2026 08 08.56119421 02 09.741-14 24 33.38   ~88H5 21.48GVNEOCPF51
     P22oLCM 0C2026 08 08.56201521 02 09.714-14 24 33.34   ~88H5 21.32GVNEOCPF51

Station data:
(F51) Pan-STARRS 1, Haleakala  (N20.707234 W156.255910)  US/Hawaii.
   Observers J. Herman, T. Lowe, P. Minguez, A. Schultz, I. Smith. Measurers
   K. Chambers, T. de Boer, J. Fairlamb, H. Gao, M. Huber, C.-C. Lin, E.
   Magnier, Y. Ramanjooloo, R. Wainscoat, R. Weryk. 1.8-m Ritchey-Chrétien +
   CCD.
(F52) Pan-STARRS 2, Haleakala  (N20.707382 W156.255910)  US/Hawaii.
   Observers J. Herman, T. Lowe, P. Minguez, A. Schultz, I. Smith. Measurers
   K. Chambers, T. de Boer, J. Fairlamb, H. Gao, M. Huber, C.-C. Lin, E.
   Magnier, Y. Ramanjooloo, R. Wainscoat, R. Weryk. 1.8-m Ritchey-Chrétien +
   CCD.
(H21) Astronomical Research Observatory, Westfield  (N39.483054 W87.968270)
   US/Illinois.  Observer R. Holmes. Measurers S. Foglia, L. Buzzi, T.
   Linder, R. Holmes. 0.40-m f/5.32 astrograph + CCD.
(T14) Mauna Kea-UH/Tholen NEO Follow-Up (CFHT)  (N19.825252 W155.468876)
   US/Hawaii.  Observer R. Weryk. 3.6-m Canada-France-Hawaii Telescope.

Orbital elements:  P22oLCM
   Perihelion 2027 Mar 10.045674 +/- 0.292 TT =  1:05:46.2 (JD 2461474.545674)
Epoch 2026 Aug  8.0 TT = JDT 2461260.5   Ju: 0.0050   Sa: 0.0955   Ur: 0.8905
M 357.013813770 +/- 0.012           (J2000 ecliptic)             AutoNEOCP
n   0.013951163 +/- 7.53e-5         Peri.   80.797281 +/- 0.06
a  17.08948965 +/- 0.0615           Node   275.733083 +/- 0.008
e   0.80348479 +/- 0.000787         Incl.    2.799803 +/- 0.0006
P  70.64699                H 16.09  G  0.15   U  6.4
q 3.358344535 +/- 0.00137    Q 30.82063477 +/- 0.124
From 29 observations 2026 June 23-Aug. 8; mean residual 0".29
Residuals in arcseconds: 
260623 F52  .04-  .06+    260803 F52  .08-  .15-    260806 T14  .00   .00     
260623 F52  .02+  .00     260803 F52  .06+  .18-    260806 T14  .00   .02-    
260623 F52  .09+  .20-    260803 F51  .07+  .07+    260806 T14  .00   .01-    
260623 F52  .05-  .08+    260803 F51  .07-  .11-    260808 F51  .13-  .03-    
260720 F51  .09-  .03-    260804 H21  .17-  1.4+    260808 F51  .03-  .11+    
260720 F51  .00   .09+    260804 H21  .27-  1.6+    260808 F51  .00   .01+    
260720 F51  .01-  .10+    260804 F51  .06+  .18-    260808 F51  .02+  .09-    
260720 F51  .00   .04-    260804 F51  .01-  .04+    260808 F51  .04+  .06-    
260803 F52  .03+  .03+    260804 F51  .02+  .10-    260808 F51  .00   .05+    
260803 F52  .19+  .09-    260804 F51  .00   .11+    

Ephemerides (geocentric):
Date (UTC) HH   RA             Dec           delta  r     elong  mag " sig PA
---- --------  ------------   ------------  ------ ------ -----  --- --------
2026 08 11 14  21 00 41.644   -14 29 11.00  2.7759 3.7858 174.3 21.4 .121 100
2026 08 11 15  21 00 40.430   -14 29 14.88  2.7758 3.7856 174.3 21.4 .122 100
2026 08 11 16  21 00 39.217   -14 29 18.75  2.7757 3.7854 174.2 21.4 .123 100
2026 08 11 17  21 00 38.004   -14 29 22.63  2.7756 3.7853 174.2 21.4 .125  99
2026 08 11 18  21 00 36.791   -14 29 26.50  2.7755 3.7851 174.2 21.4 .126  99
2026 08 11 19  21 00 35.578   -14 29 30.38  2.7754 3.7850 174.1 21.4 .127  99
2026 08 11 20  21 00 34.366   -14 29 34.26  2.7753 3.7848 174.1 21.4 .128  99
2026 08 11 21  21 00 33.153   -14 29 38.14  2.7752 3.7847 174.0 21.4 .130  99
2026 08 11 22  21 00 31.941   -14 29 42.01  2.7752 3.7845 174.0 21.4 .131  99
2026 08 11 23  21 00 30.729   -14 29 45.89  2.7751 3.7844 174.0 21.4 .132  99
2026 08 12 00  21 00 29.517   -14 29 49.77  2.7750 3.7842 173.9 21.4 .134  99
2026 08 12 01  21 00 28.305   -14 29 53.65  2.7749 3.7840 173.9 21.4 .135  99
2026 08 12 02  21 00 27.093   -14 29 57.53  2.7748 3.7839 173.8 21.4 .136  99
2026 08 12 03  21 00 25.882   -14 30 01.41  2.7747 3.7837 173.8 21.4 .137  99
2026 08 12 04  21 00 24.671   -14 30 05.29  2.7746 3.7836 173.7 21.4 .139  99
2026 08 12 05  21 00 23.460   -14 30 09.17  2.7745 3.7834 173.7 21.4 .140  99
2026 08 12 06  21 00 22.249   -14 30 13.05  2.7744 3.7833 173.7 21.4 .141  99
2026 08 12 07  21 00 21.038   -14 30 16.93  2.7743 3.7831 173.6 21.4 .143  98
2026 08 12 08  21 00 19.827   -14 30 20.82  2.7743 3.7830 173.6 21.4 .144  98
2026 08 12 09  21 00 18.617   -14 30 24.70  2.7742 3.7828 173.5 21.4 .145  98
2026 08 12 10  21 00 17.407   -14 30 28.58  2.7741 3.7826 173.5 21.4 .147  98
2026 08 12 11  21 00 16.197   -14 30 32.46  2.7740 3.7825 173.5 21.4 .148  98
2026 08 12 12  21 00 14.987   -14 30 36.34  2.7739 3.7823 173.4 21.4 .149  98
2026 08 12 13  21 00 13.778   -14 30 40.23  2.7738 3.7822 173.4 21.4 .151  98
2026 08 12 14  21 00 12.568   -14 30 44.11  2.7737 3.7820 173.3 21.4 .152  98
2026 08 12 15  21 00 11.359   -14 30 47.99  2.7737 3.7819 173.3 21.4 .154  98
2026 08 12 16  21 00 10.150   -14 30 51.88  2.7736 3.7817 173.2 21.4 .155  98
2026 08 12 17  21 00 08.942   -14 30 55.76  2.7735 3.7816 173.2 21.4 .156  98
2026 08 12 18  21 00 07.733   -14 30 59.64  2.7734 3.7814 173.2 21.4 .158  98
2026 08 12 19  21 00 06.525   -14 31 03.53  2.7733 3.7812 173.1 21.4 .159  98
2026 08 12 20  21 00 05.317   -14 31 07.41  2.7732 3.7811 173.1 21.4 .160  98
2026 08 12 21  21 00 04.109   -14 31 11.30  2.7732 3.7809 173.0 21.4 .162  98
2026 08 12 22  21 00 02.901   -14 31 15.18  2.7731 3.7808 173.0 21.4 .163  98
2026 08 12 23  21 00 01.694   -14 31 19.06  2.7730 3.7806 172.9 21.4 .165  98
2026 08 13 00  21 00 00.487   -14 31 22.95  2.7729 3.7805 172.9 21.4 .166  97
2026 08 13 01  20 59 59.280   -14 31 26.83  2.7728 3.7803 172.9 21.4 .168  97
2026 08 13 02  20 59 58.073   -14 31 30.72  2.7728 3.7802 172.8 21.4 .169  97
2026 08 13 03  20 59 56.867   -14 31 34.60  2.7727 3.7800 172.8 21.4 .170  97
2026 08 13 04  20 59 55.660   -14 31 38.49  2.7726 3.7799 172.7 21.4 .172  97
2026 08 13 05  20 59 54.454   -14 31 42.37  2.7725 3.7797 172.7 21.4 .173  97
2026 08 13 06  20 59 53.249   -14 31 46.26  2.7724 3.7795 172.7 21.4 .175  97
2026 08 13 07  20 59 52.043   -14 31 50.14  2.7724 3.7794 172.6 21.4 .176  97
2026 08 13 08  20 59 50.838   -14 31 54.03  2.7723 3.7792 172.6 21.4 .178  97
2026 08 13 09  20 59 49.633   -14 31 57.91  2.7722 3.7791 172.5 21.4 .179  97
2026 08 13 10  20 59 48.428   -14 32 01.80  2.7721 3.7789 172.5 21.4 .181  97
2026 08 13 11  20 59 47.224   -14 32 05.68  2.7721 3.7788 172.4 21.4 .182  97
2026 08 13 12  20 59 46.020   -14 32 09.57  2.7720 3.7786 172.4 21.4 .184  97
2026 08 13 13  20 59 44.816   -14 32 13.46  2.7719 3.7785 172.4 21.4 .185  97